| time (UTC) | temp F | wind direction | speed MPH | gust MPH | rain 1hr in | rain 24hr in | rain mn in | humidity % | barometer mb |
| 20260503184604 | 68 | 240 | 13.0 | 15.0 | 0.00 | 0.00 | 0.00 | 34 | 1008.6 |
| 20260503184101 | 68 | 177 | 6.0 | 9.0 | 0.00 | 0.00 | 0.00 | 37 | 1008.6 |
| 20260503183557 | 68 | 208 | 4.0 | 9.0 | 0.00 | 0.00 | 0.00 | 39 | 1008.6 |
| 20260503183055 | 69 | 246 | 6.0 | 9.0 | 0.00 | 0.00 | 0.00 | 39 | 1008.8 |
| 20260503182553 | 68 | 200 | 7.0 | 8.0 | 0.00 | 0.00 | 0.00 | 39 | 1008.6 |
| 20260503182051 | 68 | 247 | 4.0 | 8.0 | 0.00 | 0.00 | 0.00 | 38 | 1008.4 |
| 20260503181547 | 69 | 167 | 1.0 | 6.0 | 0.00 | 0.00 | 0.00 | 38 | 1008.8 |
| 20260503181044 | 68 | 237 | 5.0 | 6.0 | 0.00 | 0.00 | 0.00 | 37 | 1008.8 |
| 20260503180541 | 69 | 141 | 2.0 | 5.0 | 0.00 | 0.00 | 0.00 | 38 | 1008.9 |
| 20260503180038 | 67 | 205 | 3.0 | 7.0 | 0.00 | 0.00 | 0.00 | 38 | 1008.8 |
| 20260503175536 | 68 | 303 | 8.0 | 11.0 | 0.00 | 0.00 | 0.00 | 39 | 1008.9 |
| 20260503175033 | 68 | 311 | 8.0 | 10.0 | 0.00 | 0.00 | 0.00 | 39 | 1008.9 |
| 20260503174530 | 68 | 253 | 2.0 | 5.0 | 0.00 | 0.00 | 0.00 | 41 | 1008.9 |
| 20260503174026 | 68 | 291 | 5.0 | 7.0 | 0.00 | 0.00 | 0.00 | 41 | 1008.8 |
| 20260503173521 | 68 | 160 | 6.0 | 9.0 | 0.00 | 0.00 | 0.00 | 41 | 1008.8 |
| 20260503173017 | 68 | 215 | 4.0 | 7.0 | 0.00 | 0.00 | 0.00 | 42 | 1009.0 |
| 20260503172516 | 67 | 169 | 3.0 | 14.0 | 0.00 | 0.00 | 0.00 | 41 | 1009.0 |
| 20260503172012 | 67 | 34 | 2.0 | 10.0 | 0.00 | 0.00 | 0.00 | 41 | 1008.9 |
| 20260503171509 | 67 | 225 | 8.0 | 13.0 | 0.00 | 0.00 | 0.00 | 41 | 1009.0 |
| 20260503171006 | 67 | 262 | 8.0 | 10.0 | 0.00 | 0.00 | 0.00 | 41 | 1009.0 |
| 20260503170503 | 66 | 286 | 4.0 | 6.0 | 0.00 | 0.00 | 0.00 | 41 | 1009.1 |
| 20260503150855 | 62 | 276 | 3.0 | 11.0 | 0.00 | 0.00 | 0.00 | 48 | 1008.7 |
| 20260503150351 | 62 | 284 | 6.0 | 11.0 | 0.00 | 0.00 | 0.00 | 48 | 1008.8 |
| 20260503140315 | 59 | 210 | 4.0 | 7.0 | 0.00 | 0.00 | 0.00 | 51 | 1008.4 |
| 20260503131245 | 56 | 203 | 4.0 | 6.0 | 0.00 | 0.00 | 0.00 | 53 | 1008.0 |
| 20260503130742 | 56 | 226 | 5.0 | 6.0 | 0.00 | 0.00 | 0.00 | 53 | 1007.9 |
| 20260503130239 | 56 | 256 | 1.0 | 3.0 | 0.00 | 0.00 | 0.00 | 53 | 1008.1 |
| 20260503120205 | 54 | 80 | 0.0 | 1.0 | 0.00 | 0.00 | 0.00 | 55 | 1007.5 |
| 20260503110633 | 52 | 112 | 1.0 | 3.0 | 0.00 | 0.00 | 0.00 | 56 | 1006.9 |
| 20260503110130 | 53 | 148 | 1.0 | 5.0 | 0.00 | 0.00 | 0.00 | 55 | 1007.0 |
| 20260503081434 | 56 | 65 | 1.0 | 1.0 | 0.00 | 0.00 | 0.00 | 57 | 1008.1 |
| 20260503080931 | 56 | 97 | 1.0 | 3.0 | 0.00 | 0.00 | 0.00 | 56 | 1007.9 |
| 20260503080428 | 56 | 112 | 2.0 | 2.0 | 0.00 | 0.00 | 0.00 | 56 | 1008.0 |
| 20260503072904 | 57 | 125 | 2.0 | 7.0 | 0.00 | 0.00 | 0.00 | 55 | 1008.4 |
| 20260503072401 | 57 | 72 | 2.0 | 7.0 | 0.00 | 0.00 | 0.00 | 55 | 1008.7 |
| 20260503071858 | 57 | 102 | 1.0 | 5.0 | 0.00 | 0.00 | 0.00 | 56 | 1008.8 |
| 20260503071355 | 57 | 106 | 1.0 | 6.0 | 0.00 | 0.00 | 0.00 | 56 | 1008.9 |
| 20260503070851 | 57 | 139 | 2.0 | 3.0 | 0.00 | 0.00 | 0.00 | 56 | 1008.9 |
| 20260503070349 | 57 | 106 | 1.0 | 5.0 | 0.00 | 0.00 | 0.00 | 56 | 1009.0 |
| 20260503060309 | 57 | 134 | 2.0 | 7.0 | 0.00 | 0.00 | 0.00 | 51 | 1010.1 |
| 20260503054755 | 57 | 134 | 3.0 | 7.0 | 0.00 | 0.00 | 0.00 | 51 | 1010.3 |
| 20260503054252 | 57 | 125 | 2.0 | 5.0 | 0.00 | 0.00 | 0.00 | 51 | 1010.3 |
| 20260503053749 | 57 | 154 | 2.0 | 5.0 | 0.00 | 0.00 | 0.00 | 50 | 1010.5 |
| 20260503053243 | 58 | 116 | 1.0 | 3.0 | 0.00 | 0.00 | 0.00 | 50 | 1010.5 |
| 20260503052738 | 58 | 44 | 1.0 | 6.0 | 0.00 | 0.00 | 0.00 | 50 | 1010.4 |
| 20260503052236 | 58 | 92 | 3.0 | 6.0 | 0.00 | 0.00 | 0.00 | 49 | 1010.5 |
| 20260503051730 | 58 | 101 | 3.0 | 6.0 | 0.00 | 0.00 | 0.00 | 50 | 1010.4 |
| 20260503051228 | 58 | 97 | 4.0 | 7.0 | 0.00 | 0.00 | 0.00 | 49 | 1010.5 |
| 20260503050725 | 58 | 95 | 2.0 | 5.0 | 0.00 | 0.00 | 0.00 | 50 | 1010.6 |
| 20260503050221 | 58 | 103 | 4.0 | 6.0 | 0.00 | 0.00 | 0.00 | 49 | 1010.5 |
| 20260503045719 | 58 | 116 | 3.0 | 3.0 | 0.00 | 0.00 | 0.00 | 49 | 1010.6 |
| 20260503045216 | 58 | 122 | 1.0 | 3.0 | 0.00 | 0.00 | 0.00 | 50 | 1010.5 |
| 20260503044712 | 58 | 97 | 1.0 | 3.0 | 0.00 | 0.00 | 0.00 | 51 | 1010.7 |
| 20260503044210 | 58 | 121 | 2.0 | 3.0 | 0.00 | 0.00 | 0.00 | 49 | 1010.7 |
| 20260503043707 | 59 | 101 | 0.0 | 6.0 | 0.00 | 0.00 | 0.00 | 50 | 1010.8 |
| 20260503043205 | 59 | 121 | 2.0 | 2.0 | 0.00 | 0.00 | 0.00 | 49 | 1011.0 |
| 20260503042700 | 59 | 116 | 0.0 | 2.0 | 0.00 | 0.00 | 0.00 | 48 | 1011.0 |
| 20260503042156 | 59 | 114 | 4.0 | 5.0 | 0.00 | 0.00 | 0.00 | 47 | 1011.0 |
| 20260503041652 | 60 | 97 | 2.0 | 2.0 | 0.00 | 0.00 | 0.00 | 46 | 1011.3 |
| 20260503041150 | 60 | 106 | 1.0 | 3.0 | 0.00 | 0.00 | 0.00 | 46 | 1011.4 |
| 20260503040648 | 60 | 112 | 4.0 | 5.0 | 0.00 | 0.00 | 0.00 | 46 | 1011.4 |
| 20260503040145 | 60 | 133 | 1.0 | 7.0 | 0.00 | 0.00 | 0.00 | 46 | 1011.3 |
| 20260503035642 | 60 | 134 | 1.0 | 1.0 | 0.00 | 0.00 | 0.00 | 46 | 1011.3 |
| 20260503035139 | 60 | 136 | 1.0 | 3.0 | 0.00 | 0.00 | 0.00 | 45 | 1011.5 |
| 20260503034636 | 60 | 134 | 1.0 | 2.0 | 0.00 | 0.00 | 0.00 | 46 | 1011.8 |
| 20260503034133 | 60 | 146 | 1.0 | 3.0 | 0.00 | 0.00 | 0.00 | 45 | 1011.5 |
| 20260503033630 | 60 | 144 | 1.0 | 2.0 | 0.00 | 0.00 | 0.00 | 45 | 1011.7 |
| 20260503033128 | 60 | 110 | 1.0 | 3.0 | 0.00 | 0.00 | 0.00 | 45 | 1012.0 |
| 20260503032627 | 60 | 115 | 2.0 | 6.0 | 0.00 | 0.00 | 0.00 | 44 | 1011.8 |
| 20260503032125 | 60 | 105 | 0.0 | 5.0 | 0.00 | 0.00 | 0.00 | 45 | 1012.0 |
| 20260503031622 | 60 | 167 | 3.0 | 5.0 | 0.00 | 0.00 | 0.00 | 45 | 1012.2 |
| 20260503031119 | 60 | 162 | 2.0 | 5.0 | 0.00 | 0.00 | 0.00 | 45 | 1012.2 |
| 20260503030615 | 61 | 142 | 3.0 | 5.0 | 0.00 | 0.00 | 0.00 | 44 | 1012.5 |
| 20260503030112 | 60 | 163 | 1.0 | 3.0 | 0.00 | 0.00 | 0.00 | 45 | 1012.6 |
| 20260503025609 | 61 | 161 | 2.0 | 2.0 | 0.00 | 0.00 | 0.00 | 44 | 1012.5 |
| 20260503025107 | 61 | 137 | 3.0 | 5.0 | 0.00 | 0.00 | 0.00 | 44 | 1012.6 |
| 20260503024603 | 61 | 136 | 1.0 | 5.0 | 0.00 | 0.00 | 0.00 | 43 | 1012.9 |
| 20260503024100 | 61 | 195 | 5.0 | 7.0 | 0.00 | 0.00 | 0.00 | 43 | 1013.0 |
| 20260503023556 | 62 | 151 | 4.0 | 11.0 | 0.00 | 0.00 | 0.00 | 43 | 1013.0 |
| 20260503023054 | 61 | 180 | 5.0 | 7.0 | 0.00 | 0.00 | 0.00 | 43 | 1013.4 |
| 20260503022550 | 62 | 196 | 2.0 | 3.0 | 0.00 | 0.00 | 0.00 | 43 | 1013.1 |
| 20260503022044 | 62 | 226 | 2.0 | 5.0 | 0.00 | 0.00 | 0.00 | 42 | 1013.3 |
| 20260503021542 | 62 | 241 | 5.0 | 13.0 | 0.00 | 0.00 | 0.00 | 41 | 1013.3 |
| 20260503021038 | 62 | 166 | 4.0 | 9.0 | 0.00 | 0.00 | 0.00 | 42 | 1013.2 |
| 20260503020536 | 62 | 169 | 2.0 | 2.0 | 0.00 | 0.00 | 0.00 | 43 | 1013.2 |
| 20260503020033 | 62 | 232 | 2.0 | 6.0 | 0.00 | 0.00 | 0.00 | 43 | 1013.0 |
| 20260503015529 | 62 | 231 | 1.0 | 3.0 | 0.00 | 0.00 | 0.00 | 43 | 1013.0 |
| 20260503015027 | 62 | 220 | 2.0 | 5.0 | 0.00 | 0.00 | 0.00 | 42 | 1013.0 |
| 20260503014522 | 62 | 230 | 4.0 | 8.0 | 0.00 | 0.00 | 0.00 | 42 | 1012.9 |
| 20260503014021 | 62 | 226 | 2.0 | 10.0 | 0.00 | 0.00 | 0.00 | 41 | 1013.0 |
| 20260503013517 | 62 | 230 | 2.0 | 6.0 | 0.00 | 0.00 | 0.00 | 43 | 1012.9 |
| 20260503013015 | 62 | 182 | 3.0 | 8.0 | 0.00 | 0.00 | 0.00 | 43 | 1012.9 |
| 20260503012513 | 62 | 217 | 1.0 | 6.0 | 0.00 | 0.00 | 0.00 | 43 | 1013.0 |
| 20260503012009 | 62 | 237 | 3.0 | 6.0 | 0.00 | 0.00 | 0.00 | 44 | 1013.3 |
| 20260503011506 | 62 | 174 | 3.0 | 7.0 | 0.00 | 0.00 | 0.00 | 43 | 1013.2 |
| 20260503011003 | 62 | 189 | 5.0 | 7.0 | 0.00 | 0.00 | 0.00 | 43 | 1012.9 |
| 20260503010459 | 62 | 223 | 5.0 | 7.0 | 0.00 | 0.00 | 0.00 | 43 | 1013.1 |
| 20260503005956 | 62 | 177 | 4.0 | 9.0 | 0.00 | 0.00 | 0.00 | 43 | 1013.1 |
| 20260503005453 | 62 | 159 | 0.0 | 3.0 | 0.00 | 0.00 | 0.00 | 44 | 1013.2 |
| 20260503004950 | 62 | 126 | 1.0 | 10.0 | 0.00 | 0.00 | 0.00 | 44 | 1013.3 |
| 20260503004447 | 62 | 129 | 1.0 | 3.0 | 0.00 | 0.00 | 0.00 | 44 | 1013.2 |
| 20260503003945 | 62 | 155 | 2.0 | 6.0 | 0.00 | 0.00 | 0.00 | 43 | 1013.4 |
| 20260503003441 | 62 | 202 | 4.0 | 8.0 | 0.00 | 0.00 | 0.00 | 43 | 1013.4 |
| 20260503002938 | 62 | 226 | 4.0 | 8.0 | 0.00 | 0.00 | 0.00 | 43 | 1013.5 |
| 20260503002435 | 62 | 191 | 3.0 | 8.0 | 0.00 | 0.00 | 0.00 | 43 | 1013.4 |
| 20260503001932 | 63 | 200 | 2.0 | 15.0 | 0.00 | 0.00 | 0.00 | 42 | 1013.5 |
| 20260503001428 | 63 | 233 | 9.0 | 21.0 | 0.00 | 0.00 | 0.00 | 40 | 1013.3 |
| 20260503000926 | 63 | 132 | 5.0 | 18.0 | 0.00 | 0.00 | 0.00 | 39 | 1013.3 |
| 20260503000423 | 63 | 181 | 7.0 | 13.0 | 0.00 | 0.00 | 0.00 | 38 | 1013.3 |
| 20260502235920 | 63 | 184 | 3.0 | 3.0 | 0.00 | 0.00 | 0.00 | 38 | 1013.4 |
| 20260502235417 | 63 | 137 | 1.0 | 3.0 | 0.00 | 0.00 | 0.00 | 38 | 1013.4 |
| 20260502234914 | 64 | 125 | 0.0 | 2.0 | 0.00 | 0.00 | 0.00 | 37 | 1013.3 |
| 20260502234411 | 64 | 182 | 1.0 | 5.0 | 0.00 | 0.00 | 0.00 | 38 | 1013.4 |
| 20260502233908 | 64 | 162 | 1.0 | 2.0 | 0.00 | 0.00 | 0.00 | 37 | 1013.3 |
| 20260502233403 | 64 | 81 | 2.0 | 2.0 | 0.00 | 0.00 | 0.00 | 38 | 1013.7 |
| 20260502232901 | 64 | 127 | 3.0 | 3.0 | 0.00 | 0.00 | 0.00 | 37 | 1013.6 |
| 20260502232357 | 64 | 78 | 2.0 | 6.0 | 0.00 | 0.00 | 0.00 | 38 | 1013.3 |
| 20260502231854 | 64 | 175 | 2.0 | 3.0 | 0.00 | 0.00 | 0.00 | 37 | 1013.6 |
| 20260502231352 | 64 | 124 | 1.0 | 1.0 | 0.00 | 0.00 | 0.00 | 40 | 1013.7 |
| 20260502230850 | 64 | 214 | 1.0 | 3.0 | 0.00 | 0.00 | 0.00 | 37 | 1013.7 |
| 20260502230348 | 63 | 170 | 3.0 | 3.0 | 0.00 | 0.00 | 0.00 | 37 | 1013.7 |
| 20260502225844 | 64 | 131 | 2.0 | 6.0 | 0.00 | 0.00 | 0.00 | 38 | 1013.6 |
| 20260502225341 | 64 | 171 | 1.0 | 2.0 | 0.00 | 0.00 | 0.00 | 38 | 1013.8 |
| 20260502224838 | 64 | 184 | 1.0 | 6.0 | 0.00 | 0.00 | 0.00 | 37 | 1014.1 |
| 20260502224334 | 64 | 208 | 2.0 | 6.0 | 0.00 | 0.00 | 0.00 | 36 | 1013.9 |
| 20260502223831 | 64 | 208 | 3.0 | 6.0 | 0.00 | 0.00 | 0.00 | 37 | 1014.1 |
| 20260502223329 | 64 | 183 | 6.0 | 9.0 | 0.00 | 0.00 | 0.00 | 37 | 1014.0 |
| 20260502222827 | 64 | 173 | 2.0 | 5.0 | 0.00 | 0.00 | 0.00 | 37 | 1014.0 |
| 20260502222324 | 64 | 189 | 5.0 | 7.0 | 0.00 | 0.00 | 0.00 | 36 | 1014.0 |
| 20260502221820 | 64 | 141 | 2.0 | 3.0 | 0.00 | 0.00 | 0.00 | 37 | 1014.1 |
| 20260502221316 | 64 | 170 | 4.0 | 6.0 | 0.00 | 0.00 | 0.00 | 37 | 1014.3 |
| 20260502220814 | 64 | 180 | 4.0 | 7.0 | 0.00 | 0.00 | 0.00 | 36 | 1014.2 |
| 20260502220309 | 64 | 229 | 3.0 | 10.0 | 0.00 | 0.00 | 0.00 | 36 | 1014.3 |
| 20260502215806 | 64 | 119 | 2.0 | 10.0 | 0.00 | 0.00 | 0.00 | 37 | 1014.3 |
| 20260502215305 | 64 | 268 | 3.0 | 10.0 | 0.00 | 0.00 | 0.00 | 36 | 1014.5 |
| 20260502214800 | 64 | 205 | 3.0 | 7.0 | 0.00 | 0.00 | 0.00 | 36 | 1014.6 |
| 20260502214256 | 64 | 277 | 5.0 | 10.0 | 0.00 | 0.00 | 0.00 | 36 | 1014.5 |
| 20260502213754 | 64 | 171 | 4.0 | 13.0 | 0.00 | 0.00 | 0.00 | 36 | 1014.6 |
| 20260502213251 | 64 | 221 | 3.0 | 8.0 | 0.00 | 0.00 | 0.00 | 36 | 1014.9 |
| 20260502212750 | 63 | 167 | 5.0 | 7.0 | 0.00 | 0.00 | 0.00 | 36 | 1015.0 |
| 20260502212248 | 63 | 161 | 4.0 | 8.0 | 0.00 | 0.00 | 0.00 | 36 | 1014.9 |
| 20260502211743 | 64 | 136 | 3.0 | 9.0 | 0.00 | 0.00 | 0.00 | 36 | 1014.9 |
| 20260502211240 | 64 | 190 | 5.0 | 8.0 | 0.00 | 0.00 | 0.00 | 36 | 1015.1 |
| 20260502210737 | 64 | 124 | 4.0 | 6.0 | 0.00 | 0.00 | 0.00 | 35 | 1015.2 |
| 20260502210235 | 63 | 181 | 3.0 | 11.0 | 0.00 | 0.00 | 0.00 | 36 | 1015.1 |
| 20260502205732 | 64 | 155 | 6.0 | 14.0 | 0.00 | 0.00 | 0.00 | 35 | 1015.5 |
| 20260502205228 | 63 | 149 | 5.0 | 7.0 | 0.00 | 0.00 | 0.00 | 35 | 1015.4 |
| 20260502204726 | 64 | 200 | 6.0 | 14.0 | 0.00 | 0.00 | 0.00 | 35 | 1015.7 |
| 20260502204223 | 63 | 124 | 5.0 | 11.0 | 0.00 | 0.00 | 0.00 | 37 | 1015.9 |
| 20260502203720 | 62 | 229 | 4.0 | 8.0 | 0.00 | 0.00 | 0.00 | 36 | 1016.0 |
| 20260502203218 | 63 | 222 | 8.0 | 10.0 | 0.00 | 0.00 | 0.00 | 35 | 1016.2 |
| 20260502202712 | 62 | 158 | 2.0 | 5.0 | 0.00 | 0.00 | 0.00 | 36 | 1016.1 |
| 20260502202211 | 62 | 108 | 6.0 | 9.0 | 0.00 | 0.00 | 0.00 | 37 | 1016.2 |
| 20260502201708 | 62 | 75 | 5.0 | 10.0 | 0.00 | 0.00 | 0.00 | 36 | 1016.4 |
| 20260502201204 | 62 | 117 | 0.0 | 6.0 | 0.00 | 0.00 | 0.00 | 38 | 1016.3 |
| 20260502200700 | 61 | 177 | 6.0 | 9.0 | 0.00 | 0.00 | 0.00 | 36 | 1016.4 |
| 20260502200156 | 62 | 166 | 4.0 | 9.0 | 0.00 | 0.00 | 0.00 | 36 | 1016.7 |
| 20260502195655 | 62 | 155 | 3.0 | 9.0 | 0.00 | 0.00 | 0.00 | 36 | 1016.5 |
| 20260502195151 | 61 | 153 | 3.0 | 9.0 | 0.00 | 0.00 | 0.00 | 37 | 1016.7 |
| 20260502194648 | 62 | 218 | 1.0 | 9.0 | 0.00 | 0.00 | 0.00 | 37 | 1016.8 |
| 20260502194144 | 62 | 232 | 5.0 | 10.0 | 0.00 | 0.00 | 0.00 | 37 | 1016.7 |
| 20260502193641 | 61 | 206 | 7.0 | 9.0 | 0.00 | 0.00 | 0.00 | 36 | 1017.1 |
| 20260502193138 | 60 | 205 | 5.0 | 14.0 | 0.00 | 0.00 | 0.00 | 38 | 1017.2 |
| 20260502192633 | 59 | 173 | 5.0 | 9.0 | 0.00 | 0.00 | 0.00 | 37 | 1017.1 |
| 20260502192131 | 61 | 167 | 3.0 | 13.0 | 0.00 | 0.00 | 0.00 | 37 | 1017.5 |
| 20260502191627 | 61 | 110 | 3.0 | 9.0 | 0.00 | 0.00 | 0.00 | 40 | 1017.2 |
| 20260502191125 | 59 | 138 | 5.0 | 7.0 | 0.00 | 0.00 | 0.00 | 37 | 1017.3 |
| 20260502190623 | 59 | 220 | 9.0 | 11.0 | 0.00 | 0.00 | 0.00 | 36 | 1017.5 |
| 20260502190120 | 59 | 110 | 6.0 | 13.0 | 0.00 | 0.00 | 0.00 | 37 | 1017.5 |
| 20260502185614 | 59 | 150 | 5.0 | 11.0 | 0.00 | 0.00 | 0.00 | 37 | 1018.1 |
| 20260502185112 | 58 | 166 | 4.0 | 14.0 | 0.00 | 0.00 | 0.00 | 38 | 1017.8 |